Location: Asheville, NC
(35.6000°N, 82.5500°W)
Time: 10:38:36

AO-7 - Pass Details

Date: 16 March 2018
Orbit: 1440 x 1459 km, 101.7° (Epoch: 20 March)

Event Time Altitude Azimuth Distance (km) Brightness Sun altitude
Rises 03:08:52 0° 42° (NE) 4,537 ? -50.2°
Reaches altitude 10° 03:14:59 10° 76° (ENE) 3,551 ? -49.5°
Maximum altitude 03:16:54 11° 90° (E) 3,478 ? -49.2°
Drops below altitude 10° 03:18:48 10° 104° (ESE) 3,546 ? -49.0°
Enters shadow 03:20:20 - 114° (ESE) 3,697 ? -48.8°
